ATLAS AGENA D R/B, 2144

Orbit data source: Space-Track

ATLAS AGENA D R/B, 2144 is space debris in LEO originally from a launch on Fri, 08 Apr 1966 UTC launched from the Air Force Eastern Test Range (AFETR). Debris objects in space refer to the collection of defunct objects orbiting the Earth. Examples of debris include non-operational satellites, rocket bodies, and fragments generated from explosions, collisions, or faulty payload assembly.

Loading next visibility...
Identifier
2144, 1966-031B
Orbit
LEO
Country
Flag of USUS
Related business
Manufacturer
LMSC
Mission
Spacecraft
Bus & Motor
AGENA D, Unknown motor
Mass
769 kg wet, 769 kg dry
Launch date (UTC)
1966-04-08 (60 years ago)
Launch vehicle
Unknown
Launch site
Air Force Eastern Test Range (AFETR)
Object type
Payload
Rocket body
Debris
Shape & HBR
CYL, 3.1 m
Radar Cross Section
Large (>1 m²)

Expand to show TLE details & history
Last TLE update: 1 day ago

TLE from 1 day ago
0 ATLAS AGENA D R/B
1 02144U 66031B   26208.83381260  .00000317  00000-0  95267-4 0  9990
2 02144  35.0413 113.8421 0008062 334.5004  25.5288 14.44975117168653
Epoch: 2026-07-27T20:00Z
TLE epoch observation values (Epoch: 2026-07-27T20:00:41.408Z)
Latitude
-0.00004°
Longitude
-131.84221°
Altitude
735.879 km
Speed
7.492 km/s
True Right ascension
07h 35m 22s
True Declination
0° 00' 00"
Sunlit
Object was in daylight at epoch
Visualization orbit readout
Latitude
Unknown
Longitude
Unknown
Altitude
Unknown
Speed
Unknown
Apparent Right ascension
Unknown
Apparent Declination
Unknown
Sunlit
N/A
Visualization observer readout
Local Sidereal Time
11:20:25
Azimuth
Unknown
Elevation
Unknown
Doppler factor
Unknown
Orbital elements
Apogee altitude
750.983 km
Perigee altitude
739.497 km
Semi-major axis
7,123.377 km
Eccentricity
0.00081
Inclination
35.0413°
RAAN
113.8421°
Arg. of periapsis
334.5004°
True anomaly
25.56865°
Mean anomaly
25.5288°
Eccentric anomaly
25.54872°
Mean motion
3.61006 °/min
Orbital period
99.72 mins
BSTAR
0.000095267
Loading maneuver chart data...
Computing Atmospheric mass density...
Loading historical data...
Loading historical data...
Loading historical data...
Loading historical data...
Loading historical data...
Loading historical data...
Loading historical data...
Other satellites on launch #31 in the year 1966 (1966-04-08 UTC)

Documentation

Showing up to 5 results
|